If you wish to contribute or participate in the discussions about articles you are invited to join SKYbrary as a registered user

Tromso/Langnes

From SKYbrary Wiki
ENTC
Airport
ICAO: ENTC
Summary
Name Tromso/Langnes
Region Europe
Territory Norway NO.gif
Location Tromso, Norway
Main city served
Coordinates 69° 40' 54", 18° 55' 6"
Runways
Designator Length Width Surface
1/19 2392 m7,847.769 ft 45 m147.638 ft ASP
METAR
Observation ENTC 272220Z 22013KT 9999 BKN021 01/00 Q0996 RMK WIND 2600FT 18015KT
Station Tromso / Langnes
Date/Time 27 February 2015 22:20:00
Wind direction 220°
Wind speed 13 kts
Lowest cloud amount broken clouds
Temperature 1°C
Dew point 0°C
Humidity 93%
QNH 996 hPa
Weather condition n/a


Tromsø Airport

ICAO: ENTC IATA: TOS

Description

International airport serving city of Tromso in northern Norway.

Climatology

Borderline Subpolar Oceanic/Continental subarctic climate (because of winter temperatures) (Köppen climate classification Cfc/Dfc) - uniform precipitation distribution, temperatures are moderated by the proximity of the ocean and warm currents - cool summers and comparatively mild winters.

Tromso has a reputation for heavy snowfalls in winter.

Maps

Terrain

Loading map...

Airport Layout

Loading map...


Accidents & Serious Incidents at or in vicinity of ENTC

None on SKYbrary